IRIDIUM 146

Last updated on Fri Sep 11 2026 00:03:06 GMT+0000 (Coordinated Universal Time)

1 43254U 18030F 26253.57017396 .00000037 00000+0 62000-5 0 9998 2 43254 86.3907 254.7021 0002204 88.2495 271.8953 14.34217211442379
UTC large
Height (km)
Speed (km/s)
/
Latitude / Longitude
Inclination (degrees)
Orbital Period (minutes)
Azimuth
Elevation
Range (km)
Doppler Factor

Next 0 passes for location: London (51.5072 / 0.1276)

No passes found over London.
IRIDIUM 146